{"data":{"norad_id":41937,"intl_designator":"2017-004A","name":"SBIRS GEO-4 (USA 273)","alt_names":[],"object_type":"PAYLOAD","status":"ACTIVE","operator":null,"country":"US","launch_date":"2017-01-21","launch_site_code":"AFETR","launch_vehicle":null,"mission":null,"orbit_class":"UNKNOWN","rcs_meters":null,"size_class":null,"mass_kg":null,"dimensions":null,"purposes":["comms"],"wikipedia_slug":null,"has_3d_model":false,"image_url":null,"decayed_at":null,"tle_current":{"epoch":"2026-05-24T19:17:14.241984Z","epoch_age_seconds":95967,"freshness":"FRESH","line1":"1 41937U 17004A   26144.80363706  .00000120  00000+0  00000+0 0  9997","line2":"2 41937   2.2007  42.6615 0002231  12.5343 137.4089  1.00272479 34367","mean_motion":1.00272479,"eccentricity":0.0002231,"inclination_deg":2.2007,"raan_deg":42.6615,"arg_perigee_deg":12.5343,"mean_anomaly_deg":137.4089,"bstar":0,"rev_number":3436,"period_min":1436.0869645997,"perigee_km":35776.993500624,"apogee_km":35795.807317216,"semimajor_km":42164.53740892,"source":"CELESTRAK","updated_at":"2026-05-25T13:38:14.012303Z"}}}